Regional Weather Roundup
Issued by NWS

Home | Current Version | Previous Version | Text Only | Print | Product List | Glossary On
Versions: 1 2 3 4 5 6 7 8 9 10 11 12 13 14 15 16 17 18 19 20 21 22 23 24 25 26 27 28 29 30 31 32 33 34 35 36 37 38 39 40 41 42 43 44 45 46 47 48 49 50
000
ASUS46 KSTO 102215
RWRCA

NORTHERN AND CENTRAL CA REGIONAL WEATHER ROUNDUP
NATIONAL WEATHER SERVICE SACRAMENTO CA
200 PM PST SAT DEC 10 2016

NOTE: FAIR INDICATES FEW OR NO CLOUDS BELOW 12,000 FEET WITH NO
SIGNIFICANT WEATHER AND/OR OBSTRUCTIONS TO VISIBILITY.

CAZ001-003-102300-
NORTHWEST AREA

CITY           SKY/WX    TMP DP  RH WIND       PRES   REMARKS
CRESCENT CITY  CLOUDY    50  45  83 S5        30.09S
UKIAH          LGT RAIN  54  50  86 NW5       30.05F
$$

CAZ006-505>513-102300-
BAY AREA

CITY           SKY/WX    TMP DP  RH WIND       PRES   REMARKS
SANTA ROSA     CLOUDY    58  55  90 N15       30.01F
SAN RAFAEL     N/A       60  MM  MM MISG
NAPA           CLOUDY    59  57  93 S10       30.02F
CONCORD        LGT RAIN  62  58  86 S8        30.02F FOG
OAKLAND CITY   N/A       59  MM  MM MISG
OAKLAND        LGT RAIN  60  59  96 S12       30.04F VSB 1/2
SAN FRAN CITY  N/A       59  MM  99 MISG
SAN FRAN ARPT  CLOUDY    60  58  92 SW9       30.03F FOG
LIVERMORE      LGT RAIN  61  57  87 SW9       30.02F FOG
HAYWARD        LGT RAIN  62  57  83 S10       30.04F
REDWOOD CITY   N/A       60  MM  98 MISG
MOFFETT ARPT   LGT RAIN  61  58  90 SE12      30.05F FOG
SAN JOSE ARPT  LGT RAIN  61  58  90 SE9       30.05F
$$
CAZ034-037-514>518-102300-
CENTRAL COAST

CITY           SKY/WX    TMP DP  RH WIND       PRES   REMARKS
WATSONVILLE    HVY RAIN  58  58 100 S15       30.09F VSB 1
SALINAS        CLOUDY    64  58  80 CALM      30.08F
MONTEREY       CLOUDY    62  57  83 S10G18    30.09F
SAN LUIS OBISP CLOUDY    64  59  83 NW13      30.12F
SANTA MARIA    CLOUDY    61  61 100 NW8       30.13F FOG
$$
CAZ015-016-102300-
NORTHERN SACRAMENTO VALLEY

CITY           SKY/WX    TMP DP  RH WIND       PRES   REMARKS
REDDING        CLOUDY    56  53  90 S5        29.96S
RED BLUFF      CLOUDY    57  51  80 N5        29.98S
OROVILLE       LGT RAIN  59  58  96 CALM      29.99F FOG
$$
CAZ016>018-102300-
SOUTHERN SACRAMENTO VALLEY

CITY           SKY/WX    TMP DP  RH WIND       PRES   REMARKS
AUBURN         CLOUDY    55  55 100 SW12      30.02F VSB 3/4
BEALE AFB      LGT RAIN  59  59 100 S15       29.97F
LINCOLN        CLOUDY    55  55 100 S13       30.00F
MARYSVILLE     LGT RAIN  60  58  92 S15       29.99F
SAC INTL ARPT  CLOUDY    60  60 100 S16       29.99F
MATHER AIRPORT LGT RAIN  59  59 100 S14       30.02F FOG
DOWNTOWN SAC   N/A       60  MM  MM MISG
SAC EXEC ARPT  LGT RAIN  60  60 100 S7        30.02F FOG
VACAVILLE      CLOUDY    61  60  97 SW10      30.01F
TRAVIS AFB     LGT RAIN  61  59  94 SW15      29.99F
$$
CAZ019>021-102300-
SAN JOAQUIN VALLEY

CITY           SKY/WX    TMP DP  RH WIND       PRES   REMARKS
STOCKTON       LGT RAIN  61  61 100 SE9       30.03F FOG
MODESTO        LGT RAIN  62  58  86 VRB6      30.04F FOG
MERCED         LGT RAIN  61  58  90 E3        30.07F FOG
LEMOORE        CLOUDY    70  57  63 E7        30.07F
FRESNO         CLOUDY    67  56  67 VRB3      30.08F HAZE
HANFORD        CLOUDY    69  59  70 CALM      30.08F
PORTERVILLE    PTSUNNY   68  56  65 SW3       30.09F
BAKERSFIELD    CLOUDY    68  54  60 CALM      30.08F
$$
CAZ011-012-071-102300-
NORTHERN MOUNTAINS

CITY           SKY/WX    TMP DP  RH WIND       PRES   REMARKS
YREKA          CLOUDY    49  38  65 CALM      29.95F
MOUNT SHASTA   PTSUNNY   46  42  86 CALM      29.93F
ALTURAS        CLOUDY    41  35  79 SW15      29.91F
$$
CAZ011-012-071-102300-
SIERRA NEVADA MTNS

CITY           SKY/WX    TMP DP  RH WIND       PRES   REMARKS
BLUE CANYON    HVY RAIN  45  43  93 S16G24    30.04F VSB 1/2
TAHOE VLY ARPT RAIN      40  36  86 S13G22    30.01R FOG     WCI  32
MAMMOTH LAKES  CLOUDY    51  32  48 W21G32    30.04F
$$



USA.gov is the U.S. government's official web portal to all federal, state and local government web resources and services.